PEGASUS DEB

Satellite information

Favourite Embed

Satellite Type and Status

DEBRISIN ORBIT

Key statistics

Satellite PEGASUS DEB at a glance.

Uptime

11476

Days in orbit

Revolutions

≈ 14.8

Per day

Orbit

LEO

Low Earth Orbit

Inclination

81.6

Latest

Satellite identification and parameters

Extended collection of information and parameters for PEGASUS DEB.

Object identification

Identified? True

Debris? True

Object name: PEGASUS DEB

International designator: 1994-029ACN

Object number (NORAD): 24980

Object ID (CCSDS): 24980

Country: UNITED STATES OF AMERICA (US)

Current information (Y/N): Y

RCS size: SMALL

Orbital parameters

Period: 97.167 minutes

Inclination: 81.5749 deg

SMA: 7001.189 km

Apoapsis: 741.104 km

Periapsis: 505.003 km

RAAN: 77.128 deg

Eccentricy: 0.0168615

Argument of periapsis: 46.6093 deg

Mean anomaly: 314.9016 deg

Mean motion: 14.8198929 rev/day

Mean motion (dot): 0.00023854 rev/day2

B* drag term: 0.0023386603 1/REarth

Two-line elements (TLE)

Creation date: Oct. 19, 2025, 2:20 a.m.

Reference frame: TEME

Reference center: EARTH

Epoch: Oct. 18, 2025, 9:42 a.m. UTC

TLE line 0: 0 PEGASUS DEB

TLE line 1: 1 24980U 94029ACN 25291.40440041 .00023854 00000-0 23387-2 0 9990

TLE line 2: 2 24980 81.5749 77.1280 0168615 46.6093 314.9016 14.81989290512181

Live tracking on map

Real-time ground track for satellite PEGASUS DEB.

In-orbit conjunctions

A list of the most updated potential collisions computed for object PEGASUS DEB.

Target Orbit TCA Probability of collision Miss distance Type
CZ-4B DEB SSO 2025-08-26 22:31:20 0.0002842681 134.0 (m) DEBRIS
COSMOS 407 LEO 2025-07-01 03:34:02 0.0001071043 90.0 (m) PAYLOAD
OSCAR 18 (WEBERSAT) SSO 2025-04-12 13:18:30 0.0001914167 106.0 (m) PAYLOAD
CZ-6A DEB LEO 2025-02-22 14:34:08 0.002806669 333.0 (m) DEBRIS
CZ-6A DEB LEO 2024-10-10 00:42:40 0.0001379168 351.0 (m) DEBRIS

Associated space launch

PEGASUS DEB was lifted into orbit during the mission ‘Pegasus HAPS | Space Test Experiments Platform 2 (STEP-2)’, on board a Pegasus HAPS space rocket.

The launch took place on May 19, 1994, 5:03 p.m. from Edwards Air Force Base.

For more information about the launch, click the button.

Launch to space Pegasus HAPS | Space Test Experiments Platform 2 (STEP-2)
Pegasus HAPS | Space Test Experiments Platform 2 (STEP-2)

Agency: N/A

Status: Launch Successful

Launch date: May 19, 1994, 5:03 p.m. UTC

Rocket: Pegasus HAPS

Launch pad: Edwards Air Force Base

Location: Air launch to orbit

...

Latest news about this satellite

There are no fresh news available about this satellite. Check back as we update our databases every day.


Newsletter sign-up

Weekly statistics, charts and insights to help you stay on top of the space industry.